Location: Elstree
(51.6403°N, 0.2969°W)
Time: 14:15:09
(UTC+00:00)

Cosmos 1354 Rocket - Pass Details

Date: 22 June 2021
Orbit: 764 x 783 km, 74.0° (Epoch: 25 July)

Event Time Altitude Azimuth Distance (km) Brightness Sun altitude
Rises 22:13:51 0° 334° (NNW) 3,285 9.5 -11.2°
Reaches altitude 10° 22:16:15 10° 333° (NNW) 2,353 8.1 -11.3°
Maximum altitude 22:21:36 76° 249° (WSW) 813 4.1 -11.7°
Enters shadow 22:25:51 16° 165° (SSE) 1,935 5.4 -11.9°
